Skip Navigation Links
NOAA logo - Click to go to the NOAA homepage
NOAA's National Weather Service
Alaska Aviation Weather Unit
  NWS logo - Click to go to the NWS homepage
Left Navbar Graphic     09 AKDT = 17 GMT

   
NOAA is celebrating 200 years of science, service, and stewardship. Visit the NOAA 200th celebration Web site to learn more.
USA.gov is the U.S. Government's official Web portal to all Federal, state and local government Web resources and services.
Facebook
NWS on Facebook

Important Change Regarding the AAWU Web Presence

 

Over the last several months, the AAWU has been working to navigate its webpages to a nationally supported server. Security, as well as other needs, have necessitated the change.  In the process, we have made an effort to enhance the functionality of our website, as well as some of our products. As of June 20, 2017, aawu.arh.noaa.gov will be discontinued. The new AAWU web address is weather.gov/aawu. It is now live and will run in-parallel with the old site until it is discontinued. Please send any feedback or questions regarding the new webpages to nws.ar.aawu.webauthors@noaa.gov.  Thank you for your patience during this time of transition.
AAWU Home :: Display TAF Add Bookmark
TAF PAWG 291605Z 2916/3012 VRB04KT P6SM SCT015 BKN100
     FM291800 13005KT P6SM BKN025 BKN090
     FM292000 32005KT P6SM BKN040 BKN150
     FM300500 VRB02KT P6SM BKN025 OVC150
      AMD NOT SKED=

METAR PAWG 291156Z AUTO 29003KT 10SM 11/08 A3007= METAR PAWG 291256Z AUTO 25008KT 10SM 10/07 A3008= METAR PAWG 291356Z 25008KT 10SM FEW025 SCT070 BKN200 10/07 A3008= METAR PAWG 291456Z 26006KT 10SM FEW025 SCT070 BKN200 10/07 A3008= METAR PAWG 291556Z 28004KT 10SM FEW030 SCT070 BKN200 11/07 A3009= METAR PAWG 291656Z 31004KT 10SM FEW030 SCT070 BKN200 11/08 A3008 RMK AO2 SLP187 T01060078 $=
 Alaska TAF Map

NOAA's National Weather Service
Alaska Aviation Weather Unit
6930 Sand Lake Road
Anchorage, AK 99502-1845
Disclaimer
Credits
Glossary
Privacy Policy
About Us
Career Opportunities
Contact AAWU Internet Services Site last modified: April, 17th 2012